Location: Mahannah Oil Field
(37.4664°N, 96.6003°W)
Time: 01:48:26
(UTC+00:00)

A-11 Canister half - Pass Details

Date: 25 January 2021
Orbit: 1524 x 1684 km, 47.3° (Epoch: 25 February)

Event Time Altitude Azimuth Distance (km) Brightness Sun altitude
Rises 00:27:27 0° 290° (WNW) 4,714 12.5 -9.3°
Reaches altitude 10° 00:30:39 10° 296° (WNW) 3,747 11.8 -9.9°
Maximum altitude 00:39:49 50° 10° (N) 1,964 9.4 -11.6°
Enters shadow 00:47:41 16° 80° (E) 3,399 10.1 -13.1°
Drops below altitude 10° 00:49:18 10° 84° (E) 3,867 - -13.4°
Sets 00:52:39 0° 90° (E) 4,874 - -14.1°
